Location: *
(45.9500°N, 9.0833°E)
Time: 23:07:53
(UTC+00:00)

Vanguard 2 Rocket - Pass Details

Date: 16 June 2021
Orbit: 555 x 3325 km, 32.9° (Epoch: 03 August)

Event Time Altitude Azimuth Distance (km) Brightness Sun altitude
Rises 20:37:09 0° 245° (WSW) 7,215 11.7 -11.0°
Reaches altitude 10° 20:42:36 10° 240° (WSW) 6,003 11.2 -11.6°
Maximum altitude 20:58:40 45° 176° (S) 2,943 9.1 -13.2°
Drops below altitude 10° 21:08:47 10° 109° (ESE) 3,867 9.6 -14.1°
Enters shadow 21:10:40 - 104° (ESE) 4,321 9.9 -14.3°
Sets 21:11:29 0° 102° (ESE) 4,538 - -14.4°
